Location: Newark
(52.9300°N, 3.3400°W)
Time: 10:44:01
(UTC+00:00)

ISS - Pass Details

Date: 12 March 2021
Orbit: 418 x 422 km, 51.6° (Epoch: 17 April)

Event Time Altitude Azimuth Distance (km) Brightness Sun altitude
Exits shadow 04:48:34 12° 182° (S) 1,382 -1.3 -16.6°
Drops below altitude 10° 04:49:01 10° 175° (S) 1,494 -1.1 -16.6°
Sets 04:51:37 0° 154° (SSE) 2,353 0.2 -16.2°
